Time,TemperatureF,DewpointF,PressureIn,WindDirection,WindDirectionDegrees,WindSpeedMPH,WindSpeedGustMPH,Humidity,HourlyPrecipIn,Conditions,Clouds,dailyrainin,SoftwareType,DateUTC
2013-05-16 00:02:00,55.0,50.0,29.85,WNW,291,0.0,-999.0,82,-99.99,,,-99.99,,2013-05-16 04:02:00,
2013-05-16 00:12:00,55.0,50.0,29.85,WNW,291,0.0,-999.0,82,-99.99,,,-99.99,,2013-05-16 04:12:00,
2013-05-16 00:23:00,54.0,49.0,29.85,WNW,291,0.0,-999.0,82,-99.99,,,-99.99,,2013-05-16 04:23:00,
2013-05-16 00:33:00,53.0,48.0,29.85,WNW,291,0.0,-999.0,82,-99.99,,,-99.99,,2013-05-16 04:33:00,
2013-05-16 00:42:00,53.0,48.0,29.85,WNW,291,0.0,-999.0,82,-99.99,,,-99.99,,2013-05-16 04:42:00,
2013-05-16 00:53:00,53.0,48.0,29.85,WNW,291,0.0,-999.0,82,-99.99,,,-99.99,,2013-05-16 04:53:00,
2013-05-16 01:02:00,52.0,47.0,29.85,WNW,291,0.0,-999.0,84,-99.99,,,-99.99,,2013-05-16 05:02:00,
2013-05-16 01:12:00,52.0,47.0,29.85,WNW,291,0.0,-999.0,84,-99.99,,,-99.99,,2013-05-16 05:12:00,
2013-05-16 01:22:00,52.0,47.0,29.85,WNW,291,0.0,-999.0,84,-99.99,,,-99.99,,2013-05-16 05:22:00,
2013-05-16 01:32:00,52.0,47.0,29.85,WNW,291,0.0,-999.0,84,-99.99,,,-99.99,,2013-05-16 05:32:00,
2013-05-16 01:42:00,52.0,47.0,29.85,WNW,291,0.0,-999.0,84,-99.99,,,-99.99,,2013-05-16 05:42:00,
2013-05-16 01:52:00,52.0,47.0,29.85,WNW,291,0.0,-999.0,84,-99.99,,,-99.99,,2013-05-16 05:52:00,
2013-05-16 02:01:00,52.0,48.0,29.85,WNW,291,0.0,-999.0,85,-99.99,,,-99.99,,2013-05-16 06:01:00,
2013-05-16 02:12:00,52.0,48.0,29.85,WNW,291,0.0,-999.0,85,-99.99,,,-99.99,,2013-05-16 06:12:00,
2013-05-16 02:23:00,51.0,47.0,29.85,WNW,291,0.0,-999.0,85,-99.99,,,-99.99,,2013-05-16 06:23:00,
2013-05-16 02:33:00,51.0,47.0,29.85,WNW,291,0.0,-999.0,86,-99.99,,,-99.99,,2013-05-16 06:33:00,
2013-05-16 02:43:00,51.0,47.0,29.85,WNW,291,0.0,-999.0,86,-99.99,,,-99.99,,2013-05-16 06:43:00,
2013-05-16 02:52:00,50.0,46.0,29.85,WNW,291,0.0,-999.0,86,-99.99,,,-99.99,,2013-05-16 06:52:00,
2013-05-16 03:02:00,50.0,46.0,29.85,WNW,291,0.0,-999.0,86,-99.99,,,-99.99,,2013-05-16 07:02:00,
2013-05-16 03:12:00,50.0,46.0,29.85,WNW,291,0.0,-999.0,86,-99.99,,,-99.99,,2013-05-16 07:12:00,
2013-05-16 03:24:00,50.0,46.0,29.85,WNW,291,0.0,-999.0,87,-99.99,,,-99.99,,2013-05-16 07:24:00,
2013-05-16 03:34:00,49.0,47.0,29.85,WNW,291,0.0,-999.0,92,-99.99,,,-99.99,,2013-05-16 07:34:00,
2013-05-16 03:44:00,49.0,47.0,29.85,WNW,291,0.0,-999.0,92,-99.99,,,-99.99,,2013-05-16 07:44:00,
2013-05-16 03:54:00,49.0,46.0,29.85,WNW,291,0.0,-999.0,90,-99.99,,,-99.99,,2013-05-16 07:54:00,
2013-05-16 04:03:00,48.0,45.0,29.85,WNW,291,0.0,-999.0,91,-99.99,,,-99.99,,2013-05-16 08:03:00,
2013-05-16 04:13:00,48.0,45.0,29.85,WNW,291,0.0,-999.0,91,-99.99,,,-99.99,,2013-05-16 08:13:00,
2013-05-16 04:24:00,48.0,46.0,29.85,WNW,291,0.0,-999.0,92,-99.99,,,-99.99,,2013-05-16 08:24:00,
2013-05-16 04:34:00,47.0,45.0,29.86,WNW,291,0.0,-999.0,92,-99.99,,,-99.99,,2013-05-16 08:34:00,
2013-05-16 04:45:00,47.0,45.0,29.86,WNW,291,0.0,-999.0,92,-99.99,,,-99.99,,2013-05-16 08:45:00,
2013-05-16 04:54:00,47.0,45.0,29.87,WNW,291,0.0,-999.0,92,-99.99,,,-99.99,,2013-05-16 08:54:00,
2013-05-16 05:04:00,47.0,45.0,29.88,WNW,291,0.0,-999.0,93,-99.99,,,-99.99,,2013-05-16 09:04:00,
2013-05-16 05:14:00,47.0,45.0,29.88,WNW,291,0.0,-999.0,93,-99.99,,,-99.99,,2013-05-16 09:14:00,
2013-05-16 05:24:00,47.0,45.0,29.88,WNW,291,0.0,-999.0,93,-99.99,,,-99.99,,2013-05-16 09:24:00,
2013-05-16 05:35:00,47.0,45.0,29.89,WNW,291,0.0,-999.0,93,-99.99,,,-99.99,,2013-05-16 09:35:00,
2013-05-16 05:45:00,47.0,45.0,29.89,WNW,291,0.0,-999.0,93,-99.99,,,-99.99,,2013-05-16 09:45:00,
2013-05-16 05:55:00,46.0,44.0,29.89,WNW,291,0.0,-999.0,93,-99.99,,,-99.99,,2013-05-16 09:55:00,
2013-05-16 06:05:00,46.0,44.0,29.89,WNW,291,0.0,-999.0,93,-99.99,,,-99.99,,2013-05-16 10:05:00,
2013-05-16 06:15:00,46.0,44.0,29.89,WNW,291,0.0,-999.0,93,-99.99,,,-99.99,,2013-05-16 10:15:00,
2013-05-16 06:24:00,46.0,44.0,29.89,WNW,291,0.0,-999.0,93,-99.99,,,-99.99,,2013-05-16 10:24:00,
2013-05-16 06:36:00,46.0,44.0,29.90,WNW,291,0.0,-999.0,94,-99.99,,,-99.99,,2013-05-16 10:36:00,
2013-05-16 06:45:00,46.0,44.0,29.90,WNW,291,0.0,-999.0,94,-99.99,,,-99.99,,2013-05-16 10:45:00,
2013-05-16 06:56:00,46.0,44.0,29.90,WNW,291,0.0,-999.0,94,-99.99,,,-99.99,,2013-05-16 10:56:00,
2013-05-16 07:05:00,46.0,44.0,29.90,WNW,291,0.0,-999.0,94,-99.99,,,-99.99,,2013-05-16 11:05:00,
2013-05-16 07:14:00,46.0,44.0,29.90,WNW,291,0.0,-999.0,94,-99.99,,,-99.99,,2013-05-16 11:14:00,
2013-05-16 07:25:00,46.0,44.0,29.90,WNW,291,0.0,-999.0,94,-99.99,,,-99.99,,2013-05-16 11:25:00,
2013-05-16 07:35:00,47.0,45.0,29.90,WNW,291,0.0,-999.0,94,-99.99,,,-99.99,,2013-05-16 11:35:00,
2013-05-16 07:46:00,47.0,45.0,29.90,WNW,291,0.0,-999.0,94,-99.99,,,-99.99,,2013-05-16 11:46:00,
2013-05-16 07:56:00,48.0,47.0,29.91,WNW,291,0.0,-999.0,95,-99.99,,,-99.99,,2013-05-16 11:56:00,
2013-05-16 08:06:00,50.0,48.0,29.91,WNW,291,0.0,-999.0,94,-99.99,,,-99.99,,2013-05-16 12:06:00,
2013-05-16 08:13:00,50.0,48.0,29.91,WNW,291,0.0,-999.0,94,-99.99,,,-99.99,,2013-05-16 12:13:00,
2013-05-16 08:23:00,53.0,50.0,29.91,WNW,289,1.0,-999.0,91,-99.99,,,-99.99,,2013-05-16 12:23:00,
2013-05-16 08:35:00,54.0,50.0,29.92,WNW,289,0.0,-999.0,86,-99.99,,,-99.99,,2013-05-16 12:35:00,
2013-05-16 08:45:00,54.0,50.0,29.92,WNW,289,0.0,-999.0,86,-99.99,,,-99.99,,2013-05-16 12:45:00,
2013-05-16 08:53:00,56.0,50.0,29.92,WNW,289,0.0,-999.0,79,-99.99,,,-99.99,,2013-05-16 12:53:00,
2013-05-16 09:04:00,58.0,50.0,29.93,WNW,288,0.0,-999.0,75,-99.99,,,-99.99,,2013-05-16 13:04:00,
2013-05-16 09:12:00,58.0,50.0,29.93,WNW,288,0.0,-999.0,75,-99.99,,,-99.99,,2013-05-16 13:12:00,
2013-05-16 09:26:00,60.0,50.0,29.93,WNW,286,0.0,-999.0,69,-99.99,,,-99.99,,2013-05-16 13:26:00,
2013-05-16 09:35:00,62.0,50.0,29.93,West,277,1.0,-999.0,65,-99.99,,,-99.99,,2013-05-16 13:35:00,
2013-05-16 09:43:00,62.0,50.0,29.93,West,277,1.0,-999.0,65,-99.99,,,-99.99,,2013-05-16 13:43:00,
2013-05-16 09:55:00,63.0,50.0,29.95,West,279,1.0,-999.0,63,-99.99,,,-99.99,,2013-05-16 13:55:00,
2013-05-16 10:05:00,65.0,50.0,29.94,NW,305,1.0,-999.0,58,-99.99,,,-99.99,,2013-05-16 14:05:00,
2013-05-16 10:16:00,65.0,50.0,29.94,NW,305,1.0,-999.0,58,-99.99,,,-99.99,,2013-05-16 14:16:00,
2013-05-16 10:23:00,65.0,49.0,29.94,NNW,333,2.0,-999.0,56,-99.99,,,-99.99,,2013-05-16 14:23:00,
2013-05-16 10:37:00,67.0,50.0,29.94,NW,323,0.0,-999.0,54,-99.99,,,-99.99,,2013-05-16 14:37:00,
2013-05-16 10:47:00,67.0,50.0,29.94,NW,323,0.0,-999.0,54,-99.99,,,-99.99,,2013-05-16 14:47:00,
2013-05-16 10:56:00,67.0,50.0,29.93,WNW,292,0.0,-999.0,55,-99.99,,,-99.99,,2013-05-16 14:56:00,
2013-05-16 11:08:00,69.0,51.0,29.93,NW,319,2.0,-999.0,52,-99.99,,,-99.99,,2013-05-16 15:08:00,
2013-05-16 11:17:00,69.0,51.0,29.93,NW,319,2.0,-999.0,52,-99.99,,,-99.99,,2013-05-16 15:17:00,
2013-05-16 11:28:00,70.0,52.0,29.94,WNW,299,1.0,-999.0,53,-99.99,,,-99.99,,2013-05-16 15:28:00,
2013-05-16 11:40:00,71.0,51.0,29.94,West,269,1.0,-999.0,49,-99.99,,,-99.99,,2013-05-16 15:40:00,
2013-05-16 11:50:00,72.0,52.0,29.95,West,268,1.0,-999.0,49,-99.99,,,-99.99,,2013-05-16 15:50:00,
2013-05-16 12:00:00,72.0,52.0,29.95,West,268,1.0,-999.0,49,-99.99,,,-99.99,,2013-05-16 16:00:00,
2013-05-16 12:09:00,73.0,51.0,29.94,West,267,1.0,-999.0,46,-99.99,,,-99.99,,2013-05-16 16:09:00,
2013-05-16 12:20:00,73.0,51.0,29.94,West,267,1.0,-999.0,46,-99.99,,,-99.99,,2013-05-16 16:20:00,
2013-05-16 12:30:00,74.0,53.0,29.95,West,261,0.0,-999.0,48,-99.99,,,-99.99,,2013-05-16 16:30:00,
2013-05-16 12:40:00,74.0,-99.9,29.95,West,261,0.0,-999.0,48,-99.99,,,-99.99,,2013-05-16 16:40:00,
2013-05-16 12:50:00,74.0,53.0,29.95,West,261,0.0,-999.0,48,-99.99,,,-99.99,,2013-05-16 16:50:00,
2013-05-16 13:01:00,76.0,51.0,29.94,West,263,1.0,-999.0,42,-99.99,,,-99.99,,2013-05-16 17:01:00,
2013-05-16 13:10:00,76.0,50.0,29.94,West,265,1.0,-999.0,40,-99.99,,,-99.99,,2013-05-16 17:10:00,
2013-05-16 13:20:00,76.0,50.0,29.94,West,265,1.0,-999.0,40,-99.99,,,-99.99,,2013-05-16 17:20:00,
2013-05-16 13:31:00,77.0,48.0,29.94,WSW,249,2.0,-999.0,36,-99.99,,,-99.99,,2013-05-16 17:31:00,
2013-05-16 13:40:00,77.0,54.0,29.93,SSW,213,1.0,-999.0,45,-99.99,,,-99.99,,2013-05-16 17:40:00,
2013-05-16 13:50:00,-999.0,-99.9,29.93,WSW,256,2.0,-999.0,41,-99.99,,,-99.99,,2013-05-16 17:50:00,
2013-05-16 14:00:00,78.0,-99.9,29.93,WSW,256,2.0,-999.0,41,-99.99,,,-99.99,,2013-05-16 18:00:00,
2013-05-16 14:10:00,79.0,49.0,29.92,NW,318,1.0,-999.0,35,-99.99,,,-99.99,,2013-05-16 18:10:00,
2013-05-16 14:20:00,79.0,49.0,29.92,NW,318,1.0,-999.0,35,-99.99,,,-99.99,,2013-05-16 18:20:00,
2013-05-16 14:30:00,-999.0,-99.9,29.93,NNW,336,5.0,-999.0,32,-99.99,,,-99.99,,2013-05-16 18:30:00,
2013-05-16 14:40:00,-999.0,-99.9,29.93,NNW,333,4.0,-999.0,34,-99.99,,,-99.99,,2013-05-16 18:40:00,
2013-05-16 14:50:00,-999.0,-99.9,29.93,NNW,333,4.0,-999.0,34,-99.99,,,-99.99,,2013-05-16 18:50:00,
2013-05-16 15:00:00,-999.0,-99.9,29.93,West,276,5.0,-999.0,32,-99.99,,,-99.99,,2013-05-16 19:00:00,
2013-05-16 15:10:00,79.0,-99.9,29.93,NNW,338,5.0,-999.0,36,-99.99,,,-99.99,,2013-05-16 19:10:00,
2013-05-16 15:20:00,79.0,50.0,29.93,NNW,338,5.0,-999.0,36,-99.99,,,-99.99,,2013-05-16 19:20:00,
2013-05-16 15:30:00,81.0,54.0,29.93,WSW,242,2.0,-999.0,40,-99.99,,,-99.99,,2013-05-16 19:30:00,
2013-05-16 15:40:00,81.0,-99.9,29.93,West,274,2.0,-999.0,38,-99.99,,,-99.99,,2013-05-16 19:40:00,
2013-05-16 15:51:00,-999.0,-99.9,29.93,West,274,2.0,-999.0,38,-99.99,,,-99.99,,2013-05-16 19:51:00,
2013-05-16 16:00:00,81.0,-99.9,29.93,WSW,250,4.0,-999.0,37,-99.99,,,-99.99,,2013-05-16 20:00:00,
2013-05-16 16:10:00,-999.0,-99.9,29.93,WSW,238,5.0,-999.0,34,-99.99,,,-99.99,,2013-05-16 20:10:00,
2013-05-16 16:20:00,79.0,-99.9,29.93,WNW,288,6.0,-999.0,31,-99.99,,,-99.99,,2013-05-16 20:20:00,
2013-05-16 16:30:00,79.0,-99.9,29.93,WNW,288,6.0,-999.0,31,-99.99,,,-99.99,,2013-05-16 20:30:00,
2013-05-16 16:41:00,-999.0,-99.9,29.94,West,265,7.0,-999.0,31,-99.99,,,-99.99,,2013-05-16 20:41:00,
2013-05-16 16:51:00,80.0,45.0,29.94,West,259,5.0,-999.0,29,-99.99,,,-99.99,,2013-05-16 20:51:00,
2013-05-16 17:00:00,80.0,45.0,29.94,West,259,5.0,-999.0,29,-99.99,,,-99.99,,2013-05-16 21:00:00,
2013-05-16 17:10:00,78.0,-99.9,29.93,WSW,248,6.0,-999.0,31,-99.99,,,-99.99,,2013-05-16 21:10:00,
2013-05-16 17:20:00,78.0,-99.9,29.93,WSW,248,6.0,-999.0,31,-99.99,,,-99.99,,2013-05-16 21:20:00,
2013-05-16 17:29:00,78.0,46.0,29.93,WSW,244,7.0,-999.0,32,-99.99,,,-99.99,,2013-05-16 21:29:00,
2013-05-16 17:38:00,78.0,49.0,29.93,WSW,257,5.0,-999.0,36,-99.99,,,-99.99,,2013-05-16 21:38:00,
2013-05-16 17:50:00,78.0,-99.9,29.93,WSW,257,5.0,-999.0,36,-99.99,,,-99.99,,2013-05-16 21:50:00,
2013-05-16 18:00:00,-999.0,-99.9,29.93,NW,319,4.0,-999.0,35,-99.99,,,-99.99,,2013-05-16 22:00:00,
2013-05-16 18:08:00,78.0,48.0,29.94,NW,321,3.0,-999.0,35,-99.99,,,-99.99,,2013-05-16 22:08:00,
2013-05-16 18:21:00,78.0,48.0,29.94,NW,321,3.0,-999.0,35,-99.99,,,-99.99,,2013-05-16 22:21:00,
2013-05-16 18:30:00,78.0,49.0,29.93,West,262,2.0,-999.0,36,-99.99,,,-99.99,,2013-05-16 22:30:00,
2013-05-16 18:40:00,78.0,47.0,29.93,West,265,3.0,-999.0,34,-99.99,,,-99.99,,2013-05-16 22:40:00,
2013-05-16 18:51:00,78.0,47.0,29.93,West,265,3.0,-999.0,34,-99.99,,,-99.99,,2013-05-16 22:51:00,
2013-05-16 19:00:00,78.0,45.0,29.93,West,281,4.0,-999.0,31,-99.99,,,-99.99,,2013-05-16 23:00:00,
2013-05-16 19:06:00,78.0,47.0,29.93,West,275,3.0,-999.0,33,-99.99,,,-99.99,,2013-05-16 23:06:00,
2013-05-16 19:16:00,77.0,46.0,29.93,West,265,2.0,-999.0,33,-99.99,,,-99.99,,2013-05-16 23:16:00,
2013-05-16 19:24:00,77.0,46.0,29.93,West,265,2.0,-999.0,33,-99.99,,,-99.99,,2013-05-16 23:24:00,
2013-05-16 19:35:00,76.0,45.0,29.94,West,279,2.0,-999.0,33,-99.99,,,-99.99,,2013-05-16 23:35:00,
2013-05-16 19:45:00,76.0,45.0,29.94,West,279,2.0,-999.0,33,-99.99,,,-99.99,,2013-05-16 23:45:00,
2013-05-16 19:54:00,75.0,47.0,29.94,WNW,285,1.0,-999.0,37,-99.99,,,-99.99,,2013-05-16 23:54:00,
2013-05-16 20:03:00,75.0,45.0,29.95,West,262,1.0,-999.0,35,-99.99,,,-99.99,,2013-05-17 00:03:00,
2013-05-16 20:13:00,75.0,45.0,29.95,West,262,1.0,-999.0,35,-99.99,,,-99.99,,2013-05-17 00:13:00,
2013-05-16 20:22:00,73.0,48.0,29.96,West,265,0.0,-999.0,41,-99.99,,,-99.99,,2013-05-17 00:22:00,
2013-05-16 20:33:00,71.0,48.0,29.96,West,265,0.0,-999.0,44,-99.99,,,-99.99,,2013-05-17 00:33:00,
2013-05-16 20:43:00,71.0,48.0,29.96,West,265,0.0,-999.0,44,-99.99,,,-99.99,,2013-05-17 00:43:00,
2013-05-16 20:53:00,70.0,49.0,29.96,West,265,0.0,-999.0,48,-99.99,,,-99.99,,2013-05-17 00:53:00,
2013-05-16 21:03:00,68.0,49.0,29.97,West,265,0.0,-999.0,50,-99.99,,,-99.99,,2013-05-17 01:03:00,
2013-05-16 21:12:00,68.0,49.0,29.97,West,265,0.0,-999.0,50,-99.99,,,-99.99,,2013-05-17 01:12:00,
2013-05-16 21:23:00,67.0,49.0,29.97,West,265,0.0,-999.0,52,-99.99,,,-99.99,,2013-05-17 01:23:00,
2013-05-16 21:32:00,66.0,48.0,29.98,West,265,0.0,-999.0,53,-99.99,,,-99.99,,2013-05-17 01:32:00,
2013-05-16 21:43:00,66.0,48.0,29.98,West,265,0.0,-999.0,53,-99.99,,,-99.99,,2013-05-17 01:43:00,
2013-05-16 21:53:00,65.0,50.0,29.99,West,265,0.0,-999.0,58,-99.99,,,-99.99,,2013-05-17 01:53:00,
2013-05-16 22:02:00,64.0,50.0,29.99,West,265,0.0,-999.0,60,-99.99,,,-99.99,,2013-05-17 02:02:00,
2013-05-16 22:11:00,64.0,50.0,29.99,West,265,0.0,-999.0,60,-99.99,,,-99.99,,2013-05-17 02:11:00,
2013-05-16 22:22:00,64.0,51.0,30.00,West,265,0.0,-999.0,62,-99.99,,,-99.99,,2013-05-17 02:22:00,
2013-05-16 22:32:00,63.0,50.0,30.01,West,265,0.0,-999.0,63,-99.99,,,-99.99,,2013-05-17 02:32:00,
2013-05-16 22:42:00,63.0,50.0,30.01,West,265,0.0,-999.0,63,-99.99,,,-99.99,,2013-05-17 02:42:00,
2013-05-16 22:53:00,63.0,51.0,30.02,West,265,0.0,-999.0,65,-99.99,,,-99.99,,2013-05-17 02:53:00,
2013-05-16 23:02:00,63.0,52.0,30.02,West,265,0.0,-999.0,68,-99.99,,,-99.99,,2013-05-17 03:02:00,
2013-05-16 23:11:00,63.0,52.0,30.02,West,265,0.0,-999.0,68,-99.99,,,-99.99,,2013-05-17 03:11:00,
2013-05-16 23:23:00,63.0,51.0,30.02,West,273,0.0,-999.0,65,-99.99,,,-99.99,,2013-05-17 03:23:00,
2013-05-16 23:34:00,66.0,46.0,30.03,ENE,74,4.0,-999.0,48,-99.99,,,-99.99,,2013-05-17 03:34:00,
2013-05-16 23:43:00,66.0,46.0,30.03,ENE,74,4.0,-999.0,48,-99.99,,,-99.99,,2013-05-17 03:43:00,
2013-05-16 23:53:00,68.0,41.0,30.03,NNE,31,5.0,-999.0,38,-99.99,,,-99.99,,2013-05-17 03:53:00,